Regional Weather Roundup
Issued by NWS Sioux Falls, SD

Home | Current Version | Previous Version | Text Only | Print | Product List | Glossary On
Versions: 1 2 3 4 5 6 7 8 9 10 11 12 13 14 15 16 17 18 19 20 21 22 23 24 25 26 27 28 29 30 31 32 33 34 35 36 37 38 39 40 41 42 43 44 45 46 47 48 49 50
000
ASUS43 KFSD 260310
RWRFSD

WEATHER ROUNDUP FOR SE SOUTH DAKOTA/SW MINNESOTA/NW IOWA
NATIONAL WEATHER SERVICE SIOUX FALLS SD
1000 PM CDT TUE APR 25 2017

NOTE: "FAIR" INDICATES FEW OR NO CLOUDS BELOW 12,000 FEET WITH NO
SIGNIFICANT WEATHER AND OR OBSTRUCTIONS TO VISIBILITY.


SDZ038>040-050-052>070-260400-
SOUTHEAST SOUTH DAKOTA

CITY           SKY/WX    TMP DP  RH WIND       PRES   REMARKS
BROOKINGS      MIX PCPN  35  33  92 N17       29.67S WCI  25
CHAMBERLAIN    CLOUDY    36  32  84 NW15G23   29.81R
HURON          CLOUDY    33  31  92 N20G26    29.77F WCI  21
MADISON        LGT RAIN  34  34 100 N20       29.68S WCI  22
MITCHELL       CLOUDY    35  32  88 N17G31    29.76S WCI  25
SIOUX FALLS    CLOUDY    37  37 100 N17       29.66S
WINNER         CLOUDY    34  31  88 NW17      29.82R WCI  23
YANKTON        CLOUDY    36  32  87 NW21G26   29.70R
$$

MNZ071-072-080-081-089-090-097-098-260400-
SOUTHWEST MINNESOTA

CITY           SKY/WX    TMP DP  RH WIND       PRES   REMARKS
FAIRMONT       LGT RAIN  44  43  96 NW16      29.54F FOG
JACKSON        LGT RAIN  41  39  93 NW18G26   29.57S
LUVERNE        RAIN      36  34  93 N14G21    29.64R
MARSHALL       LGT RAIN  38  36  92 NW20G26   29.64S
MONTEVIDEO     RAIN      43  43 100 N13       29.65S
PIPESTONE      LGT RAIN  37  34  87 N12G20    29.63S
REDWOOD FALLS  LGT RAIN  45  42  89 N9G18     29.59S
TRACY          RAIN      39  38  98 NW17G25   29.63R
WINDOM         LGT RAIN  39  39 100 NW23      29.58S
WORTHINGTON    LGT RAIN  38  37  97 NW21G30   29.60S
$$

IAZ001>003-012>014-020>022-031-032-NEZ013-014-SDZ071-260400-
NORTHWEST IOWA

CITY           SKY/WX    TMP DP  RH WIND       PRES   REMARKS
CHEROKEE       RAIN      40  40 100 N14G20    29.59S
DENISON        HVY RAIN  43  41  93 N13G21    29.60R
ESTHERVILLE    LGT RAIN  42  42 100 NW16      29.55S FOG
LE MARS        LGT RAIN  39  39 100 N15G21    29.64R
ORANGE CITY    LGT RAIN  39  37  93 N17G23    29.61S
SHELDON        LGT RAIN  39  37  93 N20       29.59S
SIOUX CITY     LGT RAIN  40  39  97 N18       29.63R
SPENCER        LGT RAIN  42  40  92 NW17      29.57S FOG
STORM LAKE     LGT RAIN  41  41 100 NW16      29.57R
$$

ABBREVIATIONS USED IN REMARKS
   TC - TEMPERATURE IN CELSIUS
  WCI - WIND CHILL INDEX
   HX - HEAT INDEX
  VSB - VISIBILITY




USA.gov is the U.S. government's official web portal to all federal, state and local government web resources and services.